This is the latest recevied weather packets stored in our database for station/object KC8JWT. If no packets are shown the sender has not sent any weather packets the latest 10 day(s).
| Time | Temp. | Humidity | Pressure | Rain* | Wind** | Luminosity | Snow |
|---|---|---|---|---|---|---|---|
| 1778075799 | 10° C | 99% | 1009.6 hPa | 0 mm | - | 123 W/m² | - |
| 1778075495 | 10° C | 99% | 1009.5 hPa | 0 mm | - | 112 W/m² | - |
| 1778075192 | 10° C | 99% | 1009 hPa | 1.27 mm | - | 101 W/m² | - |
| 1778074887 | 10° C | 99% | 1009.1 hPa | 0 mm | - | 81 W/m² | - |
| 1778074585 | 10.56° C | 99% | 1008.9 hPa | 1.78 mm | - | 75 W/m² | - |
| 1778074282 | 10.56° C | 99% | 1008.7 hPa | 1.78 mm | - | 72 W/m² | - |
| 1778073979 | 10.56° C | 99% | 1008.6 hPa | 0 mm | - | 63 W/m² | - |
| 1778073676 | 11.11° C | 99% | 1008.4 hPa | 0 mm | - | 47 W/m² | - |
| 1778073373 | 11.11° C | 99% | 1008.5 hPa | 1.27 mm | - | 44 W/m² | - |
| 1778073070 | 12.22° C | 99% | 1008.2 hPa | 1.27 mm | - | 32 W/m² | - |
| 1778072767 | 15° C | 99% | 1007.9 hPa | 0 mm | - | 29 W/m² | - |
| 1778072464 | 15° C | 99% | 1007.6 hPa | 0 mm | - | 29 W/m² | - |
| 1778072163 | 15° C | 99% | 1007.4 hPa | 0 mm | - | 32 W/m² | - |
| 1778071860 | 15° C | 99% | 1007.5 hPa | 0 mm | - | 31 W/m² | - |
| 1778071557 | 15° C | 99% | 1007.5 hPa | 0 mm | - | 20 W/m² | - |
| 1778071255 | 15° C | 99% | 1007.3 hPa | 0 mm | - | 30 W/m² | - |
| 1778070953 | 15° C | 99% | 1007 hPa | 0 mm | - | 42 W/m² | - |
| 1778070651 | 14.44° C | 99% | 1007.3 hPa | 0 mm | - | 19 W/m² | - |
| 1778070347 | 14.44° C | 99% | 1007.3 hPa | 0 mm | - | 16 W/m² | - |
| 1778070045 | 14.44° C | 99% | 1007.3 hPa | 0 mm | - | 15 W/m² | - |
| 1778069742 | 14.44° C | 99% | 1007.1 hPa | 0 mm | - | 21 W/m² | - |
| 1778069438 | 14.44° C | 99% | 1007.1 hPa | 0 mm | - | 24 W/m² | - |
| 1778069137 | 14.44° C | 99% | 1007.5 hPa | 0 mm | - | 18 W/m² | - |
| 1778068834 | 14.44° C | 99% | 1007.1 hPa | 0 mm | - | 14 W/m² | - |
| 1778068532 | 14.44° C | 99% | 1006.8 hPa | 0 mm | - | 20 W/m² | - |
* Rain latest hour (hover to see other rain measurements)
** Current wind speed in m/s (hover to see current wind gust speed)